Location: Muaquiua
(16.7219°S, 37.4089°E)
Time: 17:38:07
(UTC+00:00)

Daily predictions for brighter satellites

Satellite Brightness Start Highest point End
(mag) Time Altitude Azimuth Time Altitude Azimuth Time Altitude Azimuth
CZ-3 Stage 3 4.4 14:36:56 10° WNW 14:43:36 84° SSW 15:31:15 10° ESE
Centaur AC-42 4.3 15:15:23 10° NNW 15:19:54 29° NE 15:34:02 10° E
In-Cosmos 22 4.1 15:24:29 10° S 15:29:47 75° E 15:35:05 10° N
Cosmos 1818 4.2 15:26:15 10° S 15:31:05 33° ESE 15:35:53 10° NE
SL-16 R/B 2.6 15:25:55 10° S 15:31:16 42° ESE 15:36:34 10° NE
ARGOS Delta rocket 4.4 15:28:34 10° SSE 15:32:35 33° E 15:36:33 10° NNE
Cosmos 1707 4.0 15:29:18 10° SSW 15:33:02 45° W 15:36:42 10° NNW
Cosmos 1570 Rocket 4.2 15:28:32 10° SSW 15:33:52 80° W 15:39:08 10° N
CZ-4B R/B 3.6 15:28:28 10° S 15:34:09 74° WSW 15:39:43 10° NNW
Cosmos 1674 3.4 15:31:05 10° SSE 15:34:35 32° E 15:38:02 10° NNE
GPS 2-12 Rocket1 3.8 15:30:03 10° W 15:34:45 57° NNW 15:39:30 10° ENE
Cosmos 1814 Rocket 4.0 15:29:56 10° S 15:35:18 75° ESE 15:40:34 10° NNE
KORONAS-FOTON 4.3 15:37:18 10° SSE 15:40:58 38° E 15:44:37 10° NNE
Cosmos 1655 Rocket 4.1 15:36:02 10° S 15:42:11 56° E 15:48:20 10° NNE
SEDSat Delta rocket 3.4 15:37:51 10° WSW 15:42:41 89° SE 15:48:16 10° ENE
Cosmos 1733 3.3 15:39:48 10° N 15:43:38 83° W 15:47:32 10° S
Okean O Rocket 2.8 15:41:37 10° S 15:45:52 45° WSW 15:50:05 10° NNW
ATLAS 5 CENTAUR R/B 1.6 15:41:52 10° SSW 15:46:20 50° ESE 15:50:19 10° NE
Hubble Space Telescope 3.9 15:45:31 10° NW 15:46:43 11° NNW 15:47:55 10° NNW
CZ-3C R/B 3.2 15:43:36 10° WNW 15:47:08 41° N 16:02:59 10° ENE
AQUARIUS 4.3 15:42:42 10° S 15:47:14 81° WSW 15:51:43 10° NNW
SL-4 R/B 4.2 15:45:23 10° NNE 15:48:17 16° ENE 15:50:53 11° E
Cosmos 1455 Rocket 3.3 15:44:03 10° NNE 15:48:21 51° E 15:52:42 10° SSE
CREW DRAGON DEMO-1 DEB 3.7 15:47:18 10° SSW 15:50:04 29° SE 15:52:49 10° ENE
CORIOLIS 4.2 15:47:33 10° SSE 15:52:57 88° W 15:58:17 10° NNW
ATLAS 2AS CENTAUR RB 3.5 15:40:16 10° WNW 15:54:13 42° N 15:57:38 10° ENE
YAOGAN 1 4.1 15:57:21 15° ESE 15:58:32 17° E 16:01:19 10° NE
SWIFT 2.2 15:54:34 10° WSW 15:58:47 82° SSE 16:02:14 15° E
Cosmos 2292 Rocket 3.1 15:56:05 10° SSE 15:58:57 37° E 16:01:43 10° NNE
Okean-O 3.3 15:58:06 10° SE 16:02:08 35° E 16:06:10 10° NNE
USA 215 3.3 16:00:52 10° NE 16:07:23 87° NW 16:13:57 10° SW
CZ-2C R/B 3.6 16:05:17 10° NE 16:09:16 22° ESE 16:12:37 12° SSE
Lacrosse 4 Rocket 2.2 16:07:59 10° NNE 16:11:30 30° ENE 16:12:35 26° ESE
FengYun 1-2 T 4.3 16:08:11 10° SSE 16:13:53 90° ENE 16:19:32 10° NNW
Cosmos 2322 Rocket 2.3 16:13:00 10° SSW 16:18:40 79° WNW 16:24:16 10° NNE
Cosmos 2237 4.3 16:15:21 10° S 16:20:55 52° ESE 16:26:27 10° NNE
GEOS 3 Rocket 3.5 16:15:51 10° NE 16:21:08 77° ESE 16:26:21 10° SSW
Meteor 2-5 Rocket 3.8 16:19:56 10° S 16:25:35 81° W 16:31:18 10° N
DMSP B5D2-2 4.4 16:25:08 10° NE 16:29:56 39° ESE 16:34:48 10° S
Cosmos 1544 Rocket 4.0 16:25:40 10° NNW 16:30:04 64° W 16:34:31 10° S
Cosmos 1953 2.6 16:27:58 10° NNE 16:31:41 44° E 16:31:41 44° E
ASTEX 1 4.5 16:27:04 10° S 16:31:49 45° W 16:36:33 10° NNW
Delta 202 4.1 16:26:21 10° W 16:32:13 82° S 16:36:11 31° E
Cosmos 2297 Rocket 2.6 16:27:14 10° N 16:32:27 39° ENE 16:33:35 35° ESE
CZ-4 R/B 1.3 16:34:14 36° SSE 16:35:52 75° ENE 16:39:55 10° N
ASTRO E2 4.0 16:33:34 10° SW 16:36:17 27° S 16:36:17 27° S
SL-14 R/B 3.0 16:34:13 15° S 16:37:20 83° E 16:41:12 10° N
NOSS 3-3 (A) 3.7 16:33:44 10° SSW 16:39:28 55° ESE 16:44:53 10° NE
NOSS 3-3 (C) 3.7 16:33:50 10° SSW 16:39:35 54° ESE 16:44:59 10° NE
SL-24 R/B - RUBIN 2 3.8 16:38:39 10° SSW 16:43:16 79° WNW 16:48:29 10° NNE
SJ 16-02 3.6 16:41:12 10° NNE 16:41:45 13° NNE 16:41:45 13° NNE
ASC 2 Rocket 3.9 16:40:34 10° NW 16:46:10 43° NNE 16:46:59 39° NE
Cosmos 1417 Rocket 4.4 16:40:33 10° N 16:46:40 67° E 16:49:57 29° SSE
Cosmos 1809 Rocket 4.3 16:40:53 10° S 16:47:06 79° E 16:53:16 10° N
USA 234 3.7 16:48:30 38° E 16:49:44 41° NE 16:55:49 10° NNW
Cosmos 1726 2.7 16:46:49 10° N 16:49:31 48° N 16:49:31 48° N
Cosmos 2084 Rocket 3.6 16:46:11 10° NNW 16:50:41 74° WSW 16:51:26 59° S
Meteor 1-24 Rocket 4.2 16:46:04 10° SSW 16:51:29 60° W 16:57:02 10° N
Cosmos 1939 Rocket 3.8 16:49:41 22° SSW 16:52:03 49° WSW 16:56:01 10° NNW
Meteor 2-8 Rocket 4.3 16:46:59 10° N 16:52:59 66° E 16:54:50 45° SSE
Centaur AC-119 2.7 16:43:54 10° WNW 16:53:09 63° SSW 16:53:27 60° S
Cosmos 2360 Rocket 2.3 16:51:00 10° SSW 16:56:36 72° WNW 17:02:11 10° N
CZ-2D R/B 4.3 17:00:07 38° SW 17:00:49 43° WSW 17:04:30 10° NNW
MOS 1 Rocket 4.2 16:56:12 10° N 17:01:22 57° W 17:06:44 10° SSW
Palapa 6 Rocket 3.6 17:03:32 10° WNW 17:08:12 56° NNW 17:08:12 56° NNW
Cosmos 1340 Rocket 4.4 17:08:03 10° NW 17:11:33 31° W 17:12:03 30° WSW
Cosmos 1626 4.5 17:09:27 10° SW 17:12:26 23° W 17:15:23 10° NW
CZ-2C R/B 3.9 17:15:21 44° NNE 17:15:21 44° NNE 17:19:22 10° N
Cosmos 2227 Rocket 2.1 17:09:48 10° NNW 17:15:04 79° NNW 17:15:04 79° NNW
Cosmos 2219 4.1 17:18:03 10° NW 17:23:24 46° WSW 17:24:33 40° SW
SL-4 R/B 3.7 17:23:06 10° WNW 17:26:31 37° W 17:26:31 37° W
S3M 4.5 17:25:28 10° NNW 17:31:42 59° W 17:32:59 50° SW
H-2A R/B 4.4 18:00:49 19° NW 18:00:49 19° NW 18:02:18 10° NNW
